Regional Weather Roundup
Issued by NWS Sioux Falls, SD

Home | Current Version | Previous Version | Text Only | Print | Product List | Glossary On
Versions: 1 2 3 4 5 6 7 8 9 10 11 12 13 14 15 16 17 18 19 20 21 22 23 24 25 26 27 28 29 30 31 32 33 34 35 36 37 38 39 40 41 42 43 44 45 46 47 48 49 50
000
ASUS43 KFSD 251202
RWRFSD

WEATHER ROUNDUP FOR SE SOUTH DAKOTA/SW MINNESOTA/NW IOWA
NATIONAL WEATHER SERVICE SIOUX FALLS SD
700 AM CDT SAT OCT 25 2014

NOTE: "FAIR" INDICATES FEW OR NO CLOUDS BELOW 12,000 FEET WITH NO
SIGNIFICANT WEATHER AND OR OBSTRUCTIONS TO VISIBILITY.


SDZ038>040-050-052>070-251300-
SOUTHEAST SOUTH DAKOTA

CITY           SKY/WX    TMP DP  RH WIND       PRES   REMARKS
CHAMBERLAIN    CLEAR     39  35  85 W3        30.13R
6HR MIN TEMP:  37; 6HR MAX TEMP:  56;

HURON          MOCLDY    44  37  76 N6        30.10S
6HR MIN TEMP:  43; 6HR MAX TEMP:  53;

MADISON        FAIR      46  36  66 NW5       30.10S
MITCHELL       CLEAR     43  38  82 W5        30.12R
6HR MIN TEMP:  42; 6HR MAX TEMP:  52;

SIOUX FALLS    CLEAR     47  39  74 NW3       30.10R
6HR MIN TEMP:  45; 6HR MAX TEMP:  52;

WINNER         FAIR      44  34  67 W3        30.14R
YANKTON        CLEAR     43  37  81 NW6       30.12R
$$

MNZ071-072-080-081-089-090-097-098-251300-
SOUTHWEST MINNESOTA

CITY           SKY/WX    TMP DP  RH WIND       PRES   REMARKS
FAIRMONT       PTCLDY    52   0  11 NW8       30.05R
JACKSON        CLEAR     50  34  53 NW7       30.07R
LUVERNE        CLEAR     43  36  75 NW3       30.09S
MARSHALL       PTCLDY    48  34  57 W12       30.06S
6HR MIN TEMP:  46; 6HR MAX TEMP:  59;

MONTEVIDEO     CLOUDY    52  37  58 N6        30.06S
PIPESTONE      CLEAR     48  36  61 CALM      30.09R
REDWOOD FALLS  FAIR      50  38  63 W8        30.05R
TRACY          PTCLDY    51  35  53 W5        30.08R
WINDOM         PTCLDY    52  36  54 NW7       30.06S
WORTHINGTON    CLEAR     45  36  70 NW7       30.09R
$$

IAZ001>003-012>014-020>022-031-032-NEZ013-014-SDZ071-251300-
NORTHWEST IOWA

CITY           SKY/WX    TMP DP  RH WIND       PRES   REMARKS
CHEROKEE       CLEAR     42  42 100 CALM      30.09R
DENISON        CLEAR     43  43 100 CALM      30.06R
ESTHERVILLE    CLEAR     47  36  65 NW9       30.06R
LE MARS        CLEAR     39  39 100 CALM      30.10R
ORANGE CITY    CLEAR     43  37  81 CALM      30.09R
SHELDON        CLEAR     43  41  93 N5        30.07R
SIOUX CITY     CLEAR     43  41  93 W5        30.09R
6HR MIN TEMP:  42; 6HR MAX TEMP:  48;

SPENCER        CLEAR     44  37  76 N5        30.07R
6HR MIN TEMP:  42; 6HR MAX TEMP:  51;

STORM LAKE     CLEAR     54  37  54 N9        30.08R
$$

ABBREVIATIONS USED IN REMARKS
   TC - TEMPERATURE IN CELSIUS
  WCI - WIND CHILL INDEX
   HX - HEAT INDEX
  VSB - VISIBILITY




USA.gov is the U.S. government's official web portal to all federal, state and local government web resources and services.